Miscellaneous Local Product
Issued by NWS North Platte, NE

Current Version | Previous Version | Text Only | Print | Product List | Glossary On
Versions: 1 2 3 4 5 6 7 8 9 10 11 12 13 14 15 16 17 18 19 20 21 22 23 24 25 26 27 28 29 30 31 32 33 34 35 36 37 38 39 40 41 42 43 44 45 46 47 48 49 50
000
AXUS43 KLBF 250410
MISLBF


WESTERN AND NORTH CENTRAL NEBRASKA HOURLY WEATHER ROUNDUP
NATIONAL WEATHER SERVICE NORTH PLATTE NE
1100 PM CDT WED AUG 24 2016

NOTE: "FAIR" INDICATES FEW OR NO CLOUDS BELOW 12,000 FEET WITH NO
SIGNIFICANT WEATHER AND/OR OBSTRUCTIONS TO VISIBILITY.

NOTE: STATIONS NOT REPORTING VARIABLES SUCH AS SKY/WEATHER OR
PRESSURE ARE PROVIDED BY RAWS AND APRS NETWORKS AND ARE NOT UNDER
NATIONAL WEATHER SERVICE QUALITY CONTROL.

...OBSERVATIONS IN AND NEAR THE EASTERN PANHANDLE OF NEBRASKA...

CITY           SKY/WX    TMP DP  RH WIND       PRES   REMARKS
PINE RIDGE     MOCLDY    64  52  64 W14G22    30.24R
CHADRON        LGT RAIN  58  53  84 SE10      30.20F
ALLIANCE       CLOUDY    60  50  69 N13       30.24R
SIDNEY         PTCLDY    57  42  57 SE5       30.25R
CRESCENT LAKE    N/A     62  47  59 CALM        N/A
$$

...OBSERVATIONS IN NORTHERN NEBRASKA AND FAR SOUTHERN SOUTH DAKOTA...

CITY           SKY/WX    TMP DP  RH WIND       PRES   REMARKS
WINNER         FAIR      65  53  65 SW8       30.12S
VALENTINE      CLOUDY    57  51  80 SW6       30.18R
THEDFORD       CLOUDY    61  52  72 CALM      30.20R
AINSWORTH      CLOUDY    61  56  86 SW3       30.17S
O`NEILL        CLOUDY    63  55  75 NW3       30.14F
ORD            PTCLDY    62  57  83 NW6       30.14R
BROKEN BOW     PTCLDY    57  54  89 N8        30.16R
VALENTINE NWR    N/A     59  53  79 CALM        N/A
BUTTE            N/A     62  54  76 W3          N/A
HALSEY           N/A     63  48  59 CALM        N/A
EWING            N/A     58  56  93 CALM        N/A
$$

...OBSERVATIONS IN SOUTHWEST NEBRASKA AND FAR NORTHEAST COLORADO...

CITY           SKY/WX    TMP DP  RH WIND       PRES   REMARKS
WRAY           FAIR      63  41  45 CALM      30.22S
HOLYOKE        FAIR      61  48  63 CALM      30.21S
IMPERIAL       CLOUDY    62  43  49 SW3       30.20R
OGALLALA       CLOUDY    57  43  59 N3        30.21R
NORTH PLATTE   PTCLDY    61  49  64 CALM      30.19R
MCCOOK         CLOUDY    65  50  58 CALM      30.15R
LEXINGTON      CLOUDY    63  53  70 SE3       30.14S
STAPLETON        N/A     62  51  68 CALM        N/A
GOTHENBURG       N/A     66  50  56 CALM        N/A
CALLAWAY         N/A     58  53  84 N5          N/A
$$

...OBSERVATIONS IN CENTRAL LINCOLN COUNTY AREA...

CITY           SKY/WX    TMP DP  RH WIND       PRES   REMARKS
N.P. AIRPORT   PTCLDY    61  49  64 CALM      30.19R
N.P. DOWNTOWN    N/A     64  51  64 CALM        N/A
N.P. HILLCREST   N/A     63  49  59 NE7         N/A
$$

...SOME OBSERVATIONS FROM AROUND THE REGION...

CITY           SKY/WX    TMP DP  RH WIND       PRES   REMARKS
DENVER         CLOUDY    58  53  84 CALM      30.26F
LARAMIE        CLOUDY    48  41  76 S9        30.29F
CHEYENNE       CLOUDY    55  47  74 S6        30.29R
SCOTTSBLUFF    CLOUDY    59  48  67 NE13      30.22S
RAPID CITY     CLOUDY    62  44  51 N12       30.22R
BISMARCK       CLEAR     59  48  67 W15       30.08R
PIERRE         PTCLDY    62  49  62 NW6       30.08S
SIOUX FALLS    CLOUDY    65  58  78 SW3       30.08S
OMAHA          CLOUDY    66  61  84 N6        30.05F
GRAND ISLAND   CLOUDY    61  56  83 N3        30.11S
KANSAS CITY    LGT RAIN  72  68  87 NE3       30.04R
WICHITA        CLOUDY    75  68  78 E3        30.02F
OKLAHOMA CITY  PTCLDY    81  69  67 S15       30.03S
DALLAS         PTCLDY    84  68  58 S12       30.06R
AMARILLO       CLOUDY    69  60  73 S14       30.12R
DODGE CITY     CLOUDY    67  64  90 NE14      30.09R
HAYS           MOCLDY    64  54  68 NE9       30.11R
GOODLAND       CLOUDY    59  50  72 CALM      30.19R
$$




USA.gov is the U.S. government's official web portal to all federal, state and local government web resources and services.